661  
ASUS45 KBOI 150710  
RWRID  
 
IDAHO REGIONAL WEATHER ROUNDUP  
NATIONAL WEATHER SERVICE BOISE ID  
100 AM MDT SUN SEP 15 2019  
 
NOTE: "FAIR" INDICATES FEW OR NO CLOUDS BELOW 12000 FEET  
WITH NO SIGNIFICANT WEATHER AND/OR S TO VISIBILITY
 
 
IDZ012-014-150800-  
SOUTHWEST IDAHO  
 
 
CITY SKY/WX TMP DP RH WIND PRES REMARKS
 
BOISE CLEAR 70 38 31 SE9 29.83F  
CALDWELL CLEAR 65 43 44 SE8 29.81S  
MOUNTAIN HOME CLEAR 59 42 53 SE9 29.87S  

 
 
IDZ016-017-150800-  
SOUTHCENTRAL IDAHO  
 
 
CITY SKY/WX TMP DP RH WIND PRES REMARKS
 
BURLEY CLEAR 68 33 27 S13 29.97F  
JEROME CLEAR 63 40 42 E9 29.96F  
TWIN FALLS CLEAR 64 35 34 S12 29.96F  

 
 
IDZ019>023-150800-  
SOUTHEAST IDAHO  
 
 
CITY SKY/WX TMP DP RH WIND PRES REMARKS
 
IDAHO FALLS CLEAR 50 42 74 N5 30.06S  
POCATELLO CLEAR 62 33 33 NE3 30.02F  
REXBURG CLEAR 66 34 30 VRB6 30.06S  

 
 
IDZ006-010-011-018-031-032-150800-  
CENTRAL IDAHO MOUNTAINS  
 
 
CITY SKY/WX TMP DP RH WIND PRES REMARKS
 
MCCALL CLEAR 49 39 68 CALM 29.97F  
HAILEY CLEAR 54 36 50 NW8 30.10S  
STANLEY N/A 50 31 48 SE8 30.12F  
SALMON CLEAR 49 39 68 CALM 29.96S  
CHALLIS CLEAR 54 39 57 CALM 30.03S  

 
 
IDZ002-004-006-007-026-150800-  
NORTHERN IDAHO  
 
 
CITY SKY/WX TMP DP RH WIND PRES REMARKS
 
LEWISTON PTCLDY 63 45 51 SE3 29.80F  
LOWELL N/A 57 54 89 N3 29.86S  
COEUR D'ALENE PTCLDY 54 48 80 NE5 29.85F  
MULLAN PASS PTCLDY 53 37 54 VRB3 29.98F  

 
 
 
CLICK HERE TO GO TO PREVIOUS BULLETINS.

The Nexlab ID Page Main Text Page